EA4BCR Weather Reports


time (UTC)temp
C
wind
direction
speed
KPH
gust
KPH
rain 1hr
cm
rain 24hr
cm
rain mn
cm
humidity
%
barometer
mb
20260507105055 14 0.0 0.0 0.00 0.00 0.00 78 1012.0
20260507104055 14 0.0 0.0 0.00 0.00 0.00 66 1011.7
20260507103055 15 0.0 0.0 0.00 0.00 0.00 64 1011.3
20260507102055 15 0.0 0.0 0.00 0.00 0.00 63 1011.2
20260507101055 16 0.0 0.0 0.00 0.00 0.00 70 1011.1
20260507100055 14 0.0 0.0 0.00 0.00 0.00 72 1011.6
20260507095056 15 0.0 0.0 0.00 0.00 0.00 70 1011.5
20260507094055 15 0.0 0.0 0.00 0.00 0.00 63 1011.5
20260507093056 15 0.0 0.0 0.00 0.00 0.00 62 1011.4
20260507092055 14 0.0 0.0 0.00 0.00 0.00 64 1011.6
20260507091055 14 0.0 0.0 0.00 0.00 0.00 64 1011.5
20260507090055 14 0.0 0.0 0.00 0.00 0.00 68 1011.6
20260507085055 13 0.0 0.0 0.00 0.00 0.00 71 1011.8
20260507084055 13 0.0 0.0 0.00 0.00 0.00 70 1011.7
20260507083055 13 0.0 0.0 0.00 0.00 0.00 67 1011.4
20260507082055 13 0.0 0.0 0.00 0.00 0.00 65 1011.6
20260507081055 13 0.0 0.0 0.00 0.00 0.00 63 1011.5
20260507080055 13 0.0 0.0 0.00 0.00 0.00 62 1011.5
20260507075056 14 0.0 0.0 0.00 0.00 0.00 63 1011.3
20260507074055 13 0.0 0.0 0.00 0.00 0.00 65 1011.6
20260507073055 13 0.0 0.0 0.00 0.00 0.00 64 1011.6
20260507072056 13 0.0 0.0 0.00 0.00 0.00 61 1011.4
20260507071055 13 0.0 0.0 0.00 0.00 0.00 69 1011.6
20260507070055 13 0.0 0.0 0.00 0.00 0.00 67 1011.5
20260507065055 12 0.0 0.0 0.00 0.00 0.00 74 1011.7
20260507064055 12 0.0 0.0 0.00 0.00 0.00 76 1011.6
20260507063055 12 0.0 0.0 0.00 0.00 0.00 79 1011.6
20260507062055 12 0.0 0.0 0.00 0.00 0.00 77 1011.6
20260507061055 12 0.0 0.0 0.00 0.00 0.00 83 1011.2
20260507060056 12 0.0 0.0 0.00 0.00 0.00 85 1011.3
20260507055055 12 0.0 0.0 0.00 0.00 0.00 75 1010.9
20260507054055 12 0.0 0.0 0.00 0.00 0.00 77 1010.9
20260507053055 12 0.0 0.0 0.00 0.00 0.00 78 1011.0
20260507052055 12 0.0 0.0 0.00 0.00 0.00 78 1010.9
20260507051055 12 0.0 0.0 0.00 0.00 0.00 76 1011.0
20260507050055 12 0.0 0.0 0.00 0.00 0.00 76 1010.9
20260507045055 12 0.0 0.0 0.00 0.00 0.00 80 1011.0
20260507044055 11 0.0 0.0 0.00 0.00 0.00 84 1011.2
20260507043055 11 0.0 0.0 0.00 0.00 0.00 84 1011.3
20260507042055 11 0.0 0.0 0.00 0.00 0.00 79 1011.1
20260507041055 12 0.0 0.0 0.00 0.00 0.00 76 1011.3
20260507040055 12 0.0 0.0 0.00 0.00 0.00 69 1011.0
20260507035056 13 0.0 0.0 0.00 0.00 0.00 68 1010.9
20260507034055 13 0.0 0.0 0.00 0.00 0.00 68 1010.9
20260507033055 12 0.0 0.0 0.00 0.00 0.00 73 1011.2
20260507032055 12 0.0 0.0 0.00 0.00 0.00 72 1011.2
20260507031055 12 0.0 0.0 0.00 0.00 0.00 72 1011.2
20260507030055 13 0.0 0.0 0.00 0.00 0.00 72 1011.3
20260507025055 13 0.0 0.0 0.00 0.00 0.00 71 1011.3
20260507024055 13 0.0 0.0 0.00 0.00 0.00 72 1011.4
20260507023055 12 0.0 0.0 0.00 0.00 0.00 74 1011.5
20260507022055 13 0.0 0.0 0.00 0.00 0.00 75 1011.4
20260507021055 13 0.0 0.0 0.00 0.00 0.00 74 1011.3
20260507020055 13 0.0 0.0 0.00 0.00 0.00 75 1011.5
20260507015055 13 0.0 0.0 0.00 0.00 0.00 75 1011.5
20260507014055 13 0.0 0.0 0.00 0.00 0.00 71 1011.3
20260507013055 13 0.0 0.0 0.00 0.00 0.00 75 1011.6
20260507012055 13 0.0 0.0 0.00 0.00 0.00 71 1011.4
20260507011055 13 0.0 0.0 0.00 0.00 0.00 72 1011.7
20260507010055 13 0.0 0.0 0.00 0.00 0.00 71 1011.7
20260507005055 13 0.0 0.0 0.00 0.00 0.00 74 1011.8
20260507004055 12 0.0 0.0 0.00 0.00 0.00 78 1012.2
20260507003055 12 0.0 0.0 0.00 0.00 0.00 77 1012.2
20260507002055 13 0.0 0.0 0.00 0.00 0.00 74 1012.0
20260507001056 13 0.0 0.0 0.00 0.00 0.00 76 1012.0
20260507000055 13 0.0 0.0 0.00 0.00 0.00 78 1012.1
20260506235055 12 0.0 0.0 0.00 0.00 0.00 77 1012.2
20260506234055 12 0.0 0.0 0.00 0.00 0.00 80 1012.4
20260506233055 12 0.0 0.0 0.00 0.00 0.00 78 1012.3
20260506232055 13 0.0 0.0 0.00 0.00 0.00 81 1012.0
20260506231055 13 0.0 0.0 0.00 0.00 0.00 75 1011.7
20260506230055 14 0.0 0.0 0.00 0.00 0.00 75 1011.5
20260506225055 13 0.0 0.0 0.00 0.00 0.00 77 1011.8
20260506224055 13 0.0 0.0 0.00 0.00 0.00 77 1011.6
20260506223055 13 0.0 0.0 0.00 0.00 0.00 78 1011.5
20260506222055 13 0.0 0.0 0.00 0.00 0.00 75 1011.5
20260506221055 14 0.0 0.0 0.00 0.00 0.00 74 1011.3
20260506220055 13 0.0 0.0 0.00 0.00 0.00 76 1011.4
20260506215055 13 0.0 0.0 0.00 0.00 0.00 81 1011.8
20260506214055 13 0.0 0.0 0.00 0.00 0.00 73 1011.3
20260506213055 13 0.0 0.0 0.00 0.00 0.00 72 1011.5
20260506212055 13 0.0 0.0 0.00 0.00 0.00 61 1011.5
20260506211055 13 0.0 0.0 0.00 0.00 0.00 59 1011.1
20260506210055 13 0.0 0.0 0.00 0.00 0.00 57 1010.9
20260506205055 13 0.0 0.0 0.00 0.00 0.00 60 1010.7
20260506204055 13 0.0 0.0 0.00 0.00 0.00 60 1010.8
20260506203055 14 0.0 0.0 0.00 0.00 0.00 52 1010.2
20260506202055 14 0.0 0.0 0.00 0.00 0.00 52 1010.0
20260506201055 15 0.0 0.0 0.00 0.00 0.00 53 1009.8
20260506200055 15 0.0 0.0 0.00 0.00 0.00 53 1009.5
20260506195055 16 0.0 0.0 0.00 0.00 0.00 49 1009.2
20260506194055 15 0.0 0.0 0.00 0.00 0.00 51 1009.2
20260506193055 16 0.0 0.0 0.00 0.00 0.00 45 1008.7
20260506192055 17 0.0 0.0 0.00 0.00 0.00 44 1008.3
20260506191055 17 0.0 0.0 0.00 0.00 0.00 43 1008.2
20260506190055 18 0.0 0.0 0.00 0.00 0.00 41 1007.9
20260506185054 18 0.0 0.0 0.00 0.00 0.00 38 1007.6
20260506184055 18 0.0 0.0 0.00 0.00 0.00 36 1007.3
20260506183054 18 0.0 0.0 0.00 0.00 0.00 35 1007.4
20260506182055 19 0.0 0.0 0.00 0.00 0.00 35 1007.2
20260506181054 20 0.0 0.0 0.00 0.00 0.00 34 1006.9
20260506180055 20 0.0 0.0 0.00 0.00 0.00 36 1006.8
20260506175054 20 0.0 0.0 0.00 0.00 0.00 34 1006.7
20260506174054 20 0.0 0.0 0.00 0.00 0.00 39 1007.0
20260506173055 20 0.0 0.0 0.00 0.00 0.00 38 1006.9
20260506172055 20 0.0 0.0 0.00 0.00 0.00 37 1007.1
20260506171055 20 0.0 0.0 0.00 0.00 0.00 35 1007.0
20260506170054 20 0.0 0.0 0.00 0.00 0.00 35 1007.2
20260506165054 20 0.0 0.0 0.00 0.00 0.00 35 1007.1
20260506164055 20 0.0 0.0 0.00 0.00 0.00 33 1007.2
20260506163054 20 0.0 0.0 0.00 0.00 0.00 32 1006.8
20260506162056 20 0.0 0.0 0.00 0.00 0.00 30 1006.8
20260506161055 20 0.0 0.0 0.00 0.00 0.00 31 1006.9
20260506160054 21 0.0 0.0 0.00 0.00 0.00 31 1006.7
20260506155054 21 0.0 0.0 0.00 0.00 0.00 30 1006.8
20260506154055 21 0.0 0.0 0.00 0.00 0.00 29 1006.7
20260506153054 21 0.0 0.0 0.00 0.00 0.00 30 1006.7
20260506152054 21 0.0 0.0 0.00 0.00 0.00 31 1006.8
20260506151054 21 0.0 0.0 0.00 0.00 0.00 31 1006.8
20260506150055 21 0.0 0.0 0.00 0.00 0.00 30 1006.7
20260506145054 21 0.0 0.0 0.00 0.00 0.00 29 1006.8
20260506144054 20 0.0 0.0 0.00 0.00 0.00 33 1007.3
20260506143054 21 0.0 0.0 0.00 0.00 0.00 34 1007.2
20260506142055 21 0.0 0.0 0.00 0.00 0.00 32 1007.5
20260506141054 21 0.0 0.0 0.00 0.00 0.00 30 1007.6
20260506140054 21 0.0 0.0 0.00 0.00 0.00 31 1007.4
20260506135054 20 0.0 0.0 0.00 0.00 0.00 34 1008.4
20260506134054 20 0.0 0.0 0.00 0.00 0.00 33 1008.3
20260506133054 21 0.0 0.0 0.00 0.00 0.00 31 1007.8
20260506132054 22 0.0 0.0 0.00 0.00 0.00 32 1007.8
20260506131054 21 0.0 0.0 0.00 0.00 0.00 30 1007.9
20260506130054 21 0.0 0.0 0.00 0.00 0.00 31 1008.0
20260506125054 21 0.0 0.0 0.00 0.00 0.00 33 1008.2
20260506124054 20 0.0 0.0 0.00 0.00 0.00 33 1008.7
20260506123054 21 0.0 0.0 0.00 0.00 0.00 32 1008.6
20260506122054 20 0.0 0.0 0.00 0.00 0.00 35 1008.9
20260506121054 19 0.0 0.0 0.00 0.00 0.00 34 1009.3
20260506120054 21 0.0 0.0 0.00 0.00 0.00 33 1008.7
20260506115054 20 0.0 0.0 0.00 0.00 0.00 36 1009.0
20260506114055 19 0.0 0.0 0.00 0.00 0.00 34 1009.5
20260506113054 19 0.0 0.0 0.00 0.00 0.00 35 1009.6
20260506112054 18 0.0 0.0 0.00 0.00 0.00 36 1009.8
20260506111054 18 0.0 0.0 0.00 0.00 0.00 37 1010.3
20260506110054 18 0.0 0.0 0.00 0.00 0.00 38 1010.2